GFSNGP_925_thetae_000.txt.gz
Theta_e
316 317 318 319 319 319 318 315 315 315 314 314 313 313 312 311 311 311 310 309 308 307 306 307 307 306 304 303 302 301 300 295 294 295 295 295 294 294 295 294 293 293 292 290
318 318 318 318 318 316 315 315 314 314 313 314 313 312 312 311 311 311 309 309 308 307 307 306 306 304 302 301 301 301 300 298 298 296 296 295 296 293 294 294 292 290 289 288
318 313 314 317 314 313 313 312 312 312 312 313 314 314 313 312 311 310 308 307 306 307 306 305 304 302 301 300 300 300 299 297 298 297 295 294 294 294 294 291 289 288 287 287
313 314 320 315 312 312 312 312 312 315 314 313 313 312 311 310 310 308 307 307 306 306 304 303 302 300 300 300 300 300 299 297 297 297 295 294 292 290 289 288 287 287 286 286
312 317 315 314 313 314 314 313 313 314 314 313 311 310 309 308 309 308 307 306 305 303 302 301 300 300 300 298 298 295 291 291 291 292 291 289 289 288 287 286 286 285 285 285
311 315 317 310 310 313 314 314 313 313 313 312 311 314 312 309 306 306 306 303 301 301 300 299 298 297 294 291 291 290 290 290 290 289 288 288 287 287 285 285 285 285 284 283
300 307 307 308 310 312 309 311 310 311 312 312 313 311 309 307 305 304 301 300 299 299 299 299 298 295 290 289 289 291 290 289 288 288 287 287 286 285 285 284 284 283 282 282
307 313 315 311 312 312 310 308 309 309 309 310 309 307 305 304 304 300 298 298 298 298 298 297 295 291 290 290 293 289 288 288 287 287 287 285 285 284 284 283 282 281 281 281
308 309 308 309 311 309 310 310 308 310 310 307 306 305 304 301 300 298 297 296 297 298 297 296 292 291 291 289 289 288 287 286 286 286 285 284 284 284 283 282 281 281 281 281
310 311 310 309 310 310 308 308 310 309 308 307 305 304 301 300 298 297 296 295 296 297 296 295 292 290 289 289 288 288 287 286 286 285 283 284 284 283 282 281 282 281 281 280
312 311 310 310 308 309 310 309 306 305 305 304 303 302 300 298 297 296 296 296 296 295 294 294 290 290 289 289 288 288 286 285 284 284 283 283 282 282 281 281 281 281 280 280
314 311 311 311 310 307 306 304 302 301 301 300 300 300 298 297 296 296 296 297 295 294 292 291 290 289 289 289 288 288 287 286 285 284 284 282 282 282 282 281 280 280 280 279
313 311 310 309 306 305 304 304 303 303 301 299 301 300 298 296 297 297 297 295 295 293 291 290 290 289 288 289 288 287 287 286 285 285 283 282 282 282 280 280 279 279 279 278
310 309 309 306 305 302 301 301 300 300 301 300 299 299 298 297 296 296 295 294 292 291 289 290 289 288 287 288 288 287 286 286 285 284 282 282 282 281 280 279 278 278 277 277
308 305 304 303 301 300 299 299 299 298 299 299 298 297 296 294 293 291 291 291 290 289 288 288 288 287 287 288 287 286 285 284 283 283 283 282 281 280 280 278 278 278 276 276
302 301 301 300 299 300 299 298 299 297 297 296 295 295 294 291 290 289 290 290 289 288 287 286 287 287 287 287 286 286 284 284 283 282 282 282 280 280 279 278 277 277 275 275
301 302 301 298 296 296 296 296 294 293 294 295 294 294 290 289 289 288 288 288 286 286 287 286 286 286 286 286 286 284 284 284 282 282 282 280 280 279 279 277 277 276 275 274
298 296 295 295 295 295 293 294 293 292 291 291 290 289 288 287 285 287 287 286 288 287 286 285 285 284 285 285 284 284 283 284 282 281 281 280 280 279 278 277 276 276 274 274
295 295 295 295 294 294 293 292 292 292 292 291 289 287 287 287 288 287 286 287 287 285 286 285 284 284 285 285 284 284 283 282 281 281 280 280 279 279 278 277 276 275 274 273
295 295 295 295 295 293 292 293 292 291 292 292 290 288 286 288 287 287 286 286 286 285 284 284 284 284 285 284 285 283 283 282 281 281 280 279 278 278 277 277 276 274 274 273
293 295 294 293 292 293 291 290 290 291 292 291 288 288 286 287 287 287 287 286 286 284 284 284 284 284 284 283 283 283 282 281 281 280 280 279 278 277 277 276 275 274 273 273
294 293 293 292 290 292 294 294 292 292 290 290 288 288 287 287 288 287 287 286 285 284 284 283 283 283 283 282 282 282 282 282 281 280 280 279 278 276 276 276 275 274 273 273
294 294 293 292 291 291 293 292 291 290 290 289 288 288 287 288 287 287 284 286 285 284 284 283 283 283 282 281 282 282 282 281 281 281 280 279 277 277 276 276 275 274 273 273
292 292 291 292 292 289 290 291 292 291 291 289 288 288 288 286 287 286 286 284 284 284 284 284 284 283 282 281 281 282 282 281 280 281 280 279 278 277 276 276 275 274 273 273
291 291 291 291 289 289 291 292 291 291 290 289 289 288 288 287 285 284 284 284 284 284 283 284 284 284 283 282 281 281 282 281 280 280 279 279 278 277 276 276 274 274 273 272
291 291 291 291 291 292 292 292 290 290 289 288 289 288 288 286 285 284 283 284 284 283 283 283 283 284 284 284 282 282 282 281 280 279 279 278 278 277 276 276 275 274 273 272
291 291 291 290 291 292 292 291 289 289 290 289 289 289 288 286 284 284 283 283 283 283 282 282 283 283 283 283 283 283 282 281 281 280 279 278 278 277 277 276 275 274 273 272

GFSNGP_925_thetae_003.txt.gz
Theta_e
314 315 316 317 318 318 317 315 317 316 314 312 311 312 311 310 309 309 309 308 307 307 305 306 306 305 303 302 300 299 300 298 294 293 293 293 295 294 294 293 293 292 292 291
315 315 316 317 316 315 315 315 313 312 312 309 312 311 311 310 310 309 308 308 307 305 305 305 305 303 302 300 299 299 299 297 297 295 294 294 294 293 293 293 293 292 289 288
310 311 310 312 311 314 313 311 311 311 310 312 312 311 311 310 309 308 307 306 304 304 304 304 302 300 299 298 299 298 298 297 296 296 296 295 294 294 294 291 289 288 287 287
307 313 315 313 311 310 311 311 309 310 312 312 311 311 309 308 308 306 306 305 303 304 302 301 300 299 298 298 297 296 293 292 292 292 292 292 291 289 288 287 286 286 286 286
317 315 311 314 312 312 311 311 311 313 312 311 310 308 307 307 305 304 302 302 303 302 299 299 298 295 294 292 291 291 290 291 291 290 289 288 288 287 286 285 285 285 285 284
310 315 317 311 308 309 312 314 311 313 311 310 309 312 311 307 303 302 302 302 301 299 298 298 298 294 294 293 292 291 292 290 288 288 287 287 286 285 285 284 284 284 283 282
310 311 308 307 307 309 314 312 308 310 310 309 310 311 307 303 302 302 302 301 299 297 297 297 295 294 291 290 292 290 289 288 287 287 287 286 285 284 284 284 283 282 281 281
307 310 311 308 312 313 311 308 308 307 306 307 308 305 303 302 302 301 299 298 297 295 296 296 294 292 291 289 289 288 287 286 286 286 286 285 284 284 283 282 281 281 281 280
310 309 307 306 311 309 309 308 307 307 309 308 305 303 301 302 301 299 298 297 295 295 295 295 294 290 290 290 288 288 287 286 285 285 284 283 283 283 282 281 281 281 281 279
310 311 310 310 310 310 308 308 309 305 303 300 300 299 300 300 299 297 297 295 295 295 295 295 294 292 290 288 288 288 287 286 285 284 283 283 282 282 282 281 281 281 280 279
313 313 311 310 309 309 309 305 302 301 300 300 300 299 299 298 297 297 295 295 296 295 294 293 293 291 289 289 288 288 287 286 285 284 283 283 282 281 281 281 280 280 279 279
315 312 311 312 307 305 304 302 302 301 301 300 299 298 298 297 298 296 295 295 296 294 294 292 290 289 289 288 288 287 287 286 286 285 284 283 281 281 281 280 279 278 278 278
312 311 311 307 302 301 301 301 302 302 301 297 299 299 298 297 297 296 296 296 294 294 291 289 289 289 288 287 288 287 287 286 285 284 283 282 282 281 279 279 278 277 277 277
308 309 308 304 302 301 300 299 297 297 298 298 298 298 297 296 296 294 292 291 290 289 289 288 288 287 286 287 287 287 286 285 283 283 282 282 281 280 279 278 277 277 276 275
306 305 304 302 301 298 298 298 297 296 296 295 295 295 295 293 292 291 290 289 289 289 287 286 286 286 286 286 286 286 285 283 283 282 281 282 281 280 279 278 276 276 275 275
301 301 300 299 299 297 295 294 295 294 292 292 293 292 291 291 289 289 288 288 287 286 286 285 285 286 285 285 286 285 284 283 282 282 281 281 279 279 278 277 276 276 274 274
299 300 296 294 293 292 292 292 293 292 291 291 291 290 290 289 288 287 287 287 286 286 285 285 284 284 285 285 284 284 283 283 282 281 280 280 279 278 278 277 276 275 274 273
295 295 294 294 293 293 292 293 293 292 290 292 291 289 288 287 286 286 287 287 287 286 286 284 283 283 284 284 283 283 282 283 281 281 280 279 279 278 278 277 275 275 274 273
296 295 296 296 295 293 292 292 293 292 291 292 291 289 289 288 286 285 286 287 286 283 284 283 283 283 283 284 284 284 283 282 281 280 280 279 279 278 277 277 275 274 273 272
293 294 295 295 295 294 292 293 290 289 289 288 288 288 287 288 287 286 286 286 285 285 283 283 283 283 283 283 283 283 282 281 281 280 280 279 278 277 277 276 275 274 273 272
291 292 292 292 292 293 292 291 290 291 292 289 288 288 288 288 286 286 286 285 286 284 283 283 283 283 283 282 282 282 282 281 281 280 280 279 278 277 276 276 275 274 273 272
291 291 291 291 290 290 291 291 290 291 290 290 289 288 287 287 287 287 287 286 285 284 283 283 283 283 282 281 281 282 282 282 281 281 280 279 278 277 276 276 275 274 273 272
291 291 291 290 289 289 290 290 290 290 290 289 290 288 287 287 287 286 285 286 285 284 283 283 283 283 282 281 281 281 282 282 281 280 280 280 278 277 276 276 275 274 273 273
291 291 290 290 290 288 286 290 291 291 291 290 290 288 288 287 287 287 286 285 284 284 284 283 283 284 283 282 281 281 281 282 281 280 280 280 279 278 277 276 275 274 273 273
291 290 290 289 288 288 289 290 290 290 290 290 288 289 288 288 287 285 284 284 284 284 283 283 283 284 283 283 282 281 281 281 281 279 279 279 278 278 277 276 275 274 273 273
290 290 290 289 289 289 289 289 289 289 290 287 288 289 288 288 286 285 284 283 283 283 283 283 283 283 283 283 283 282 282 281 281 280 279 279 278 278 277 276 276 274 274 273
290 289 289 289 289 290 290 289 289 289 289 289 289 289 288 288 286 284 284 283 283 283 283 282 282 282 282 282 282 282 282 282 282 281 280 279 279 278 278 277 276 275 274 273

GFSNGP_925_thetae_006.txt.gz
Theta_e
313 313 313 315 316 315 315 314 317 316 313 313 311 308 310 310 308 309 309 307 305 305 306 304 304 304 302 300 298 298 298 297 296 295 294 294 294 294 294 294 293 293 293 292
313 313 313 314 314 314 314 314 314 314 314 310 307 311 310 310 309 309 307 305 305 303 303 303 303 301 299 298 298 298 297 297 296 296 295 295 292 292 292 292 292 292 291 287
309 310 309 309 309 312 313 311 311 311 310 308 312 310 309 309 308 307 305 303 300 300 301 302 300 299 298 298 297 297 294 291 291 291 291 291 291 290 289 288 287 286 286 286
308 312 317 311 310 310 310 309 308 308 307 309 310 308 307 307 307 304 302 302 301 301 301 300 298 297 295 295 294 291 291 292 292 291 288 288 287 287 286 286 285 285 285 285
316 315 312 314 311 311 310 309 309 309 311 310 308 306 307 303 302 302 302 301 301 301 299 298 297 295 292 292 291 291 293 292 290 288 287 287 286 285 285 284 284 284 284 282
310 314 316 310 308 308 311 311 310 312 311 311 307 310 311 304 302 301 300 301 300 300 298 296 297 296 293 293 292 291 291 289 287 287 286 286 285 284 284 283 283 282 282 281
315 313 310 307 306 308 314 312 310 308 310 307 307 307 302 300 299 298 300 301 300 297 295 296 297 294 293 291 289 290 288 287 286 286 285 285 284 284 283 282 282 281 281 281
306 310 310 306 310 313 310 310 309 308 306 308 304 302 300 300 299 298 300 300 298 296 295 296 296 292 290 290 291 289 287 286 285 285 285 284 283 282 282 282 281 281 280 280
312 308 306 307 311 308 308 308 307 308 304 302 300 300 299 298 298 298 299 299 296 295 295 296 295 294 294 292 290 288 287 286 285 285 284 283 282 282 282 281 281 280 280 279
311 310 311 312 310 308 306 307 303 302 301 300 300 300 298 297 297 297 298 297 295 294 295 295 293 293 293 290 288 288 287 286 286 285 284 283 283 281 281 281 280 280 279 278
311 313 311 309 307 305 304 303 302 301 301 300 298 297 297 296 295 297 297 296 295 294 295 294 293 292 290 289 288 287 287 286 286 285 284 284 283 281 281 280 280 279 278 278
313 310 312 312 307 305 304 303 302 301 299 299 298 295 296 295 296 296 295 295 295 295 294 293 292 289 289 288 287 287 287 286 285 284 284 283 282 281 281 280 279 278 278 277
312 311 310 307 304 302 301 299 299 298 297 295 296 296 295 294 294 294 294 293 292 290 290 288 288 288 287 286 287 287 286 285 284 284 282 282 282 281 280 279 278 277 276 276
307 308 306 302 302 300 300 297 296 295 295 296 295 294 294 293 292 292 291 290 289 289 288 287 286 286 286 286 286 286 285 285 284 283 282 281 281 280 279 278 277 276 276 275
303 302 301 301 300 297 294 294 293 292 293 293 293 292 292 291 290 291 291 289 289 288 287 286 286 286 285 285 285 285 285 284 282 282 281 281 280 279 279 278 277 276 275 274
300 299 298 294 294 293 293 292 291 291 291 292 291 291 291 289 289 289 288 287 287 286 285 284 284 284 284 284 284 284 283 283 283 282 281 280 279 279 278 278 277 275 275 273
298 296 295 295 293 293 292 291 291 291 291 291 291 291 288 287 288 289 289 286 286 286 285 285 283 283 283 283 283 283 283 282 282 281 280 280 279 279 278 277 276 275 274 273
295 295 294 293 293 293 291 292 292 292 290 292 290 288 288 287 286 287 286 286 286 285 285 284 283 283 283 283 283 283 283 282 281 280 280 279 279 278 278 277 276 275 274 273
293 293 293 293 294 293 292 292 292 292 291 289 288 287 287 287 287 287 285 285 285 283 284 283 282 283 283 283 282 283 283 282 281 280 280 279 279 277 277 276 276 275 274 273
291 292 292 292 292 292 290 291 291 290 290 289 290 289 288 288 288 286 286 285 286 285 284 283 282 283 283 282 282 282 282 282 281 280 280 279 279 277 277 276 275 275 273 273
290 291 291 290 290 290 290 290 289 288 289 289 290 290 289 288 287 286 285 284 287 285 284 283 283 283 282 282 281 281 281 282 281 281 280 280 279 278 277 276 275 275 274 273
291 290 289 290 289 289 290 290 289 289 289 288 289 288 289 288 286 287 287 286 286 285 284 283 283 283 283 282 281 281 281 282 281 280 280 280 279 278 277 276 276 275 274 273
290 290 290 290 289 288 289 289 290 290 288 288 288 288 289 288 287 286 284 287 286 285 284 283 283 282 283 282 281 281 281 281 282 281 280 280 279 279 278 277 276 275 274 273
290 290 290 290 289 287 285 288 289 289 290 289 289 289 288 287 288 287 286 286 285 284 283 284 283 283 283 283 282 281 281 281 281 281 279 279 279 278 278 277 276 275 274 273
290 290 289 289 288 288 288 288 288 288 289 289 289 288 288 288 287 287 286 284 284 283 284 283 283 282 283 283 283 282 282 281 281 281 280 279 278 278 278 277 276 276 274 273
289 289 289 289 289 289 289 288 288 289 289 289 289 289 288 288 287 286 286 285 283 283 283 283 282 282 282 282 282 282 282 282 282 281 281 280 279 279 278 277 277 276 275 274
288 287 286 287 288 290 289 289 289 290 289 289 288 288 288 288 288 286 285 284 283 283 283 283 282 282 281 281 281 281 281 281 282 282 281 281 280 279 279 278 277 277 276 274

GFSNGP_925_thetae_012.txt.gz
Theta_e
317 316 316 316 316 316 317 318 320 319 317 316 316 315 315 314 314 314 313 312 309 308 304 303 302 303 303 300 299 299 299 298 297 296 295 294 293 292 292 292 290 289 289 289
317 315 315 316 316 315 316 317 318 317 317 314 313 314 315 314 313 312 311 307 304 303 301 301 302 303 299 298 298 299 298 297 295 294 294 292 291 290 289 288 288 288 288 288
323 315 316 321 317 315 315 316 316 317 315 314 315 315 314 313 312 309 305 303 303 301 301 301 303 300 298 298 297 297 296 295 294 294 293 291 290 288 288 288 288 287 287 287
322 319 324 316 314 314 315 315 314 314 314 315 315 314 313 310 308 303 303 302 301 301 300 302 302 299 298 297 297 296 295 295 294 292 291 290 288 288 288 287 287 287 287 286
319 318 316 315 314 314 314 315 314 315 315 315 314 313 312 304 302 303 303 301 301 300 300 302 301 299 298 297 296 296 295 294 293 291 290 288 288 288 287 287 287 286 285 285
318 319 320 317 313 311 313 317 314 314 314 313 314 313 309 304 304 303 301 300 299 299 300 301 300 299 298 297 296 294 294 293 292 290 289 288 288 288 287 286 286 285 285 284
317 319 317 314 312 312 319 320 315 312 311 311 309 306 306 304 302 301 300 299 298 298 299 299 299 298 298 297 295 293 293 292 291 290 288 288 288 288 287 286 286 285 283 283
316 316 318 311 312 317 315 313 310 309 308 307 306 305 303 301 301 299 299 298 298 297 297 297 297 297 297 296 294 294 294 293 291 289 288 287 288 287 287 286 285 284 283 283
315 318 314 314 315 312 312 312 308 308 307 306 304 302 300 300 299 299 299 298 297 296 296 295 296 296 297 295 294 293 292 291 290 289 288 288 288 287 286 285 284 283 282 282
315 314 314 314 313 313 310 307 307 305 304 302 302 300 299 299 299 298 297 296 296 295 294 294 295 295 295 294 293 292 292 290 290 289 288 288 287 286 285 284 283 282 281 281
315 315 314 313 312 311 307 305 304 302 302 301 298 298 298 298 297 296 295 295 295 294 293 293 293 292 292 290 289 290 289 289 289 288 288 287 286 285 284 283 281 280 280 279
316 314 313 313 308 307 306 303 301 300 298 297 297 297 296 296 295 295 295 295 294 293 292 292 291 291 289 288 288 287 288 288 288 287 287 286 285 284 283 281 279 277 277 277
313 310 310 308 306 304 302 301 298 297 297 298 297 295 295 295 294 294 294 294 293 293 292 291 290 289 288 287 286 286 287 287 287 286 286 285 284 283 283 282 280 278 277 276
308 308 307 306 305 300 298 298 298 297 296 295 295 295 294 294 294 294 294 294 293 292 292 290 288 288 287 286 285 285 285 285 285 286 285 284 283 282 282 281 281 280 278 276
305 306 305 301 299 299 299 297 297 296 295 295 295 295 295 294 294 293 293 292 292 290 290 289 288 287 285 285 284 284 285 285 284 284 283 282 282 282 281 281 280 280 278 277
302 301 300 298 298 297 296 295 295 295 295 294 294 293 293 293 292 291 290 289 288 288 288 286 285 285 284 284 284 284 284 283 283 283 283 282 282 281 281 280 280 279 278 276
300 298 296 295 294 294 295 294 294 293 293 293 293 292 291 290 289 290 289 288 287 285 285 285 285 285 283 284 283 284 284 283 283 283 283 282 281 281 280 280 279 279 278 276
294 294 294 294 294 295 294 293 293 293 293 292 290 289 288 289 290 290 289 288 287 285 285 285 284 283 283 283 283 283 283 284 283 283 282 282 281 281 280 280 279 279 278 276
293 293 293 294 294 293 293 292 292 291 290 290 289 289 288 288 289 290 290 288 287 287 288 285 283 282 283 283 282 282 282 283 283 283 282 281 281 281 280 280 279 279 278 277
293 293 294 294 292 291 291 290 290 290 290 289 289 288 288 288 288 289 290 289 288 288 287 285 283 283 282 283 282 282 282 282 283 283 282 281 281 281 280 280 278 278 278 277
292 293 292 291 291 290 290 290 289 289 289 288 287 287 287 288 289 289 290 290 289 287 286 285 284 284 284 283 282 282 282 283 283 283 283 282 281 281 281 280 279 279 278 277
292 292 291 290 290 290 290 290 290 289 288 288 287 287 287 289 289 289 289 288 289 287 286 285 285 284 283 282 283 283 283 283 283 283 283 282 281 281 280 280 280 279 278 277
292 292 291 290 290 291 290 289 289 289 288 287 288 288 288 288 288 289 289 288 287 287 286 286 285 283 283 282 283 283 283 283 283 283 283 282 281 281 280 280 279 279 278 277
292 292 291 290 289 289 290 290 289 289 288 288 288 288 288 289 288 289 287 287 287 286 285 285 284 283 283 282 283 283 283 283 283 283 283 282 281 281 280 280 279 279 278 277
291 291 290 289 290 292 290 289 288 288 289 288 288 288 288 289 287 287 287 287 286 286 285 284 284 283 283 283 283 282 282 282 282 282 282 282 282 282 281 280 279 279 278 277
292 292 292 291 290 290 290 289 288 288 289 289 288 288 287 289 288 287 287 287 286 285 284 284 284 283 283 282 282 281 281 281 281 281 281 281 281 281 281 280 280 279 278 278
292 291 290 291 292 291 290 289 288 288 288 288 288 288 288 288 287 287 287 287 286 285 284 284 283 283 282 282 282 281 281 280 280 279 280 280 280 280 280 280 280 279 279 277

GFSNGP_925_thetae_015.txt.gz
Theta_e
318 316 315 316 316 316 316 316 319 319 318 318 317 316 316 316 315 314 314 313 311 309 307 304 303 303 303 302 300 299 299 299 298 297 296 295 294 293 292 291 290 290 289 289
319 317 315 316 315 315 316 316 317 317 317 317 316 316 316 315 315 313 312 310 308 304 303 302 302 302 302 301 300 299 298 298 297 296 295 295 293 292 290 290 289 289 289 289
322 319 318 323 319 315 316 316 317 319 317 316 316 316 314 314 314 312 308 306 307 304 303 302 302 302 302 300 299 298 297 297 296 296 295 293 292 290 290 289 289 289 289 288
324 320 327 319 316 316 316 316 315 316 316 316 315 314 312 312 311 308 307 306 305 303 302 301 300 301 301 300 299 298 298 297 296 295 294 292 291 290 289 289 289 288 288 288
323 320 317 317 316 316 316 317 315 317 317 316 314 313 312 308 307 307 306 304 303 301 300 300 300 300 300 300 299 298 297 296 295 295 294 292 291 290 289 289 289 288 287 287
320 321 321 319 316 314 315 318 317 316 315 314 313 315 313 309 307 306 304 302 301 300 300 299 298 298 298 298 297 297 297 295 294 294 293 292 290 290 289 289 288 288 287 286
319 321 318 315 314 314 318 320 316 315 314 311 311 310 308 307 305 303 301 300 300 299 299 298 297 297 296 296 296 296 296 295 295 295 293 291 290 289 289 289 288 287 286 285
318 320 319 314 314 319 317 317 315 312 309 309 309 307 306 304 302 300 300 300 299 298 297 297 296 295 295 295 296 296 296 295 294 293 292 290 290 289 289 288 287 286 285 284
318 319 315 314 315 315 315 315 312 308 308 308 306 305 303 301 301 300 299 298 297 296 296 295 294 294 294 294 294 294 294 293 293 292 291 290 290 289 288 287 286 285 284 284
318 315 314 314 314 314 313 312 308 306 307 304 304 302 300 300 300 298 297 296 295 295 295 294 294 293 293 293 292 292 291 291 291 291 290 289 289 288 287 286 285 283 283 282
319 316 314 315 313 312 311 308 306 306 304 303 301 300 300 299 297 296 296 295 295 295 294 294 294 293 292 292 290 290 290 289 289 290 289 289 288 287 286 285 283 281 280 279
320 315 315 315 312 310 309 308 304 303 302 300 300 300 297 297 296 295 295 295 295 294 294 294 293 292 291 290 290 288 288 289 289 289 288 287 287 286 284 284 282 280 278 277
316 314 312 309 309 308 306 304 302 301 300 300 297 297 296 296 295 295 295 294 294 294 294 293 292 290 290 289 288 286 286 286 286 287 287 286 286 285 284 284 282 281 279 277
310 310 308 308 307 304 302 301 300 299 297 297 296 296 295 295 295 294 294 294 294 293 293 292 291 290 289 288 287 286 285 285 286 286 286 285 284 283 283 283 283 282 281 278
307 307 309 306 304 302 301 299 297 297 296 295 294 294 294 294 294 294 294 293 292 291 291 291 290 290 288 287 286 285 284 285 285 285 285 284 284 283 283 283 283 282 281 280
306 305 303 302 300 298 297 297 296 296 295 294 294 294 294 293 293 293 293 292 290 289 289 288 287 287 287 286 286 286 286 284 284 284 284 284 283 283 283 282 282 282 281 280
304 302 299 297 296 296 296 296 295 294 294 294 293 293 291 291 290 292 292 291 290 289 288 286 286 287 286 285 285 285 285 285 284 283 284 283 283 283 282 282 282 281 281 279
298 296 296 296 296 296 296 294 294 293 293 293 291 290 290 290 290 290 290 290 290 289 288 286 286 286 285 284 284 284 283 284 284 284 284 284 283 282 282 282 282 281 280 280
295 295 295 295 295 295 294 293 293 292 292 291 291 290 290 289 289 289 289 289 290 290 289 288 285 284 284 283 283 283 283 284 284 284 284 283 283 283 283 283 282 281 280 280
294 294 294 294 294 293 293 292 292 292 292 292 290 289 290 289 289 289 289 290 290 290 289 288 285 285 284 284 283 283 283 283 284 284 284 284 283 283 282 282 282 281 281 280
293 293 294 294 293 292 291 291 291 291 291 290 289 289 289 288 288 289 290 291 290 290 288 287 286 286 286 285 284 283 284 284 284 284 284 284 284 283 283 282 282 282 281 280
293 294 293 293 292 292 292 292 292 291 290 290 289 288 288 288 288 289 290 290 290 289 288 287 287 286 286 284 284 284 284 284 284 284 284 284 284 283 282 282 282 282 281 280
292 293 293 293 292 293 292 291 291 290 290 289 289 288 289 289 289 289 291 290 289 288 288 287 287 286 285 283 283 283 283 284 283 284 284 283 283 283 282 282 281 281 280 280
293 293 293 293 292 291 292 293 292 290 289 289 289 289 289 289 289 289 290 289 287 287 287 287 286 285 284 283 283 283 283 283 283 283 283 283 283 283 282 282 281 281 280 280
293 293 293 293 293 293 293 293 292 292 291 290 290 290 289 288 288 289 288 288 287 287 287 286 285 284 284 284 283 283 283 283 283 283 283 282 283 283 283 282 281 281 280 280
293 293 293 293 293 293 293 293 293 292 290 290 290 289 289 288 288 287 288 287 287 287 287 286 285 284 284 284 283 283 282 283 282 282 281 281 281 282 282 282 281 281 280 280
293 293 293 294 293 293 293 293 291 290 289 288 289 289 289 288 288 287 287 288 288 287 287 286 286 285 284 284 283 283 282 282 282 281 280 280 280 280 280 280 280 280 280 280